User: anonymous   Login
Location: Caltech
(34.1382°N, 118.1253°W)
Time: 13:05:55
(UTC-08:00)
Language:

SPOT 1/Viking Rocket - Orbit

View from above orbital plane
View from above orbital plane
View from above satellite
View from above satellite

Ground track
Ground track

The orbit data is extracted from the following two-line orbital elements,

1 16615U 86019C   14326.75143383  .00000241  00000-0  10791-3 0  5447
2 16615 098.7377 019.0149 0010772 279.8895 190.1599 14.31354875505376
Epoch (UTC): 22 November 2014 18:02:03
Eccentricity: 0.0010772
inclination: 98.7377°
perigee height: 779 km
apogee height: 795 km
right ascension of ascending node: 19.0149°
argument of perigee: 279.8895°
revolutions per day: 14.31354875
mean anomaly at epoch: 190.1599°
orbit number at epoch: 50537

The dashed part of the orbit path shows where the satellite is in the earth's shadow,  

DLR